This is the latest recevied weather packets stored in our database for station/object IW7DVM-13. If no packets are shown the sender has not sent any weather packets the latest 10 day(s).
| Time | Temp. | Humidity | Pressure | Rain* | Wind** | Luminosity | Snow |
|---|---|---|---|---|---|---|---|
| 1787412303 | 35° C | 45% | 1006.5 hPa | 0 mm | - | - | - |
| 1787412003 | 35° C | 45% | 1006.5 hPa | 0 mm | - | - | - |
| 1787411703 | 35° C | 44% | 1006.5 hPa | 0 mm | - | - | - |
| 1787411403 | 35.56° C | 43% | 1006.5 hPa | 0 mm | - | - | - |
| 1787411103 | 36.11° C | 41% | 1006.5 hPa | 0 mm | - | - | - |
| 1787410803 | 36.11° C | 41% | 1006.4 hPa | 0 mm | - | - | - |
| 1787410503 | 35.56° C | 41% | 1006.5 hPa | 0 mm | - | - | - |
| 1787410203 | 35.56° C | 43% | 1006.3 hPa | 0 mm | - | - | - |
| 1787409903 | 35.56° C | 42% | 1006.4 hPa | 0 mm | - | - | - |
| 1787409603 | 35.56° C | 42% | 1006.4 hPa | 0 mm | - | - | - |
| 1787409303 | 35.56° C | 45% | 1006.3 hPa | 0 mm | - | - | - |
| 1787409003 | 35° C | 48% | 1006.5 hPa | 0 mm | - | - | - |
| 1787408703 | 35° C | 47% | 1006.5 hPa | 0 mm | - | - | - |
| 1787408403 | 35.56° C | 45% | 1006.6 hPa | 0 mm | - | - | - |
| 1787408103 | 35.56° C | 45% | 1006.5 hPa | 0 mm | - | - | - |
| 1787407804 | 35° C | 46% | 1006.4 hPa | 0 mm | - | - | - |
| 1787407503 | 35° C | 47% | 1006.5 hPa | 0 mm | - | - | - |
| 1787407203 | 34.44° C | 48% | 1006.4 hPa | 0 mm | - | - | - |
| 1787406903 | 33.89° C | 53% | 1006.5 hPa | 0 mm | - | - | - |
| 1787406603 | 33.33° C | 57% | 1006.5 hPa | 0 mm | - | - | - |
| 1787406303 | 33.33° C | 58% | 1006.7 hPa | 0 mm | - | - | - |
| 1787406003 | 33.33° C | 57% | 1006.3 hPa | 0 mm | - | - | - |
| 1787405703 | 33.89° C | 57% | 1006.4 hPa | 0 mm | - | - | - |
| 1787405403 | 34.44° C | 55% | 1006.4 hPa | 0 mm | - | - | - |
| 1787405103 | 34.44° C | 51% | 1006.4 hPa | 0 mm | - | - | - |
* Rain latest hour (hover to see other rain measurements)
** Current wind speed in m/s (hover to see current wind gust speed)